STARLINK-33882, 63788

Orbit data source: Space-Track

STARLINK-33882, 63788 is a payload satellite owned by SpaceX/Seattle (US) in LEO that was launched on Fri, 02 May 2025 UTC via an FALCON 9 launch vehicle from the Air Force Eastern Test Range (AFETR). Payload-class satellites include a variety of spacecraft equipped with specific instruments for various scientific and technological missions. These include communications satellites like Starlink; space stations such as the ISS; scientific satellites like the Hubble; Earth observation satellites from companies like Planet Labs, Umbra, and HawkEye 360; GPS; miniature CubeSats for education and research; and military/defense satellites.

Loading next visibility...
Identifier
63788, 2025-091P
Orbit
LEO
Country
Flag of USUS
Related business
Manufacturer
SpaceX/Seattle
Mission
Operational Commercial Communications
Bus & Motor
STARLINK V2MO, Unknown motor
Mass
575 kg wet, ~530 kg dry
Launch date (UTC)
2025-05-02 (1 year ago)
Launch vehicle
FALCON 9
Launch site
Air Force Eastern Test Range (AFETR)
Object type
Payload
Rocket body
Debris
Shape & HBR
Box + 2 Pan, 17.7 m
Radar Cross Section
36.964 m², Large (>1 m²)

Expand to show TLE details & history
Last TLE update: 12 hours ago

TLE from 12 hours ago
0 STARLINK-33882
1 63788U 25091P   26171.35464368  .00011556  00000-0  42864-3 0  9990
2 63788  42.9987 192.7109 0001194 277.1374  82.9341 15.27592577 64599
Epoch: 2026-06-20T08:30Z
TLE epoch observation values (Epoch: 2026-06-20T08:30:41.213Z)
Latitude
-0.0001°
Longitude
156.46861°
Altitude
482.686 km
Speed
7.626 km/s
True Right ascension
12h 50m 50s
True Declination
0° 00' 00"
Sunlit
Object was in daylight at epoch
Visualization orbit readout
Latitude
Unknown
Longitude
Unknown
Altitude
Unknown
Speed
Unknown
Apparent Right ascension
Unknown
Apparent Declination
Unknown
Sunlit
N/A
Visualization observer readout
Local Sidereal Time
07:18:24
Azimuth
Unknown
Elevation
Unknown
Doppler factor
Unknown
Orbital elements
Apogee altitude
485.776 km
Perigee altitude
484.137 km
Semi-major axis
6,863.094 km
Eccentricity
0.00012
Inclination
42.9987°
RAAN
192.7109°
Arg. of periapsis
277.1374°
True anomaly
82.94768°
Mean anomaly
82.9341°
Eccentric anomaly
82.94089°
Mean motion
3.81736 °/min
Orbital period
94.31 mins
BSTAR
0.00042864
Loading maneuver chart data...
Computing Atmospheric mass density...
Loading historical data...
Loading historical data...
Loading historical data...
Loading historical data...
Loading historical data...
Loading historical data...
Loading historical data...

Documentation

Showing up to 5 results
|